FW2203 Weather Reports


Display with metric or nautical units.
time (UTC)temp
F
wind
direction
speed
MPH
gust
MPH
rain 1hr
in
rain 24hr
in
rain mn
in
humidity
%
barometer
mb
20191216094634 13 5 0.0 1.0 0.00 0.05 0.00 89 1025.8
20191216093242 14 5 0.0 1.0 0.00 0.05 0.00 89 1025.5
20191216091648 14 5 0.0 1.0 0.00 0.05 0.00 89 1025.3
20191216090128 14 5 0.0 1.0 0.00 0.05 0.00 89 1025.1
20191216084620 14 5 0.0 1.0 0.00 0.05 0.00 90 1024.9
20191216083217 14 5 0.0 2.0 0.00 0.05 0.00 90 1024.8
20191216081705 14 5 0.0 2.0 0.00 0.05 0.00 89 1024.7
20191216080107 14 5 0.0 1.0 0.00 0.05 0.05 90 1024.5
20191216074940 14 5 0.0 1.0 0.00 0.05 0.05 90 1024.3
20191216073235 14 5 0.0 0.0 0.00 0.05 0.05 90 1024.3
20191216071635 14 5 0.0 1.0 0.00 0.05 0.05 89 1024.1
20191216070213 14 5 0.0 2.0 0.00 0.05 0.05 89 1024.0
20191216064644 15 5 0.0 0.0 0.00 0.05 0.05 89 1023.9
20191216063126 15 5 0.0 2.0 0.00 0.05 0.05 90 1023.8
20191216061618 15 5 0.0 0.0 0.00 0.05 0.05 89 1023.6
20191216060125 15 5 0.0 0.0 0.00 0.05 0.05 89 1023.6
20191216054655 15 5 0.0 0.0 0.00 0.05 0.05 90 1023.4
20191216053057 15 5 0.0 0.0 0.00 0.05 0.05 89 1023.2
20191216051553 15 5 0.0 0.0 0.00 0.05 0.05 89 1022.9
20191216050035 15 5 0.0 0.0 0.00 0.05 0.05 89 1022.5
20191216044547 16 5 0.0 0.0 0.00 0.05 0.05 89 1022.4
20191216043025 16 5 0.0 0.0 0.00 0.05 0.05 89 1022.2
20191216041525 17 5 0.0 0.0 0.00 0.05 0.05 89 1022.0
20191216040017 18 5 0.0 0.0 0.00 0.05 0.05 89 1021.8
20191216034514 18 5 0.0 0.0 0.00 0.05 0.05 89 1021.8
20191216033026 19 5 0.0 0.0 0.00 0.05 0.05 89 1021.9
20191216031507 20 5 0.0 1.0 0.00 0.05 0.05 89 1021.7
20191216024756 22 5 0.0 0.0 0.00 0.05 0.05 90 1021.1
20191216023235 22 5 0.0 0.0 0.00 0.05 0.05 90 1021.0
20191216021726 22 5 0.0 1.0 0.00 0.05 0.05 90 1020.8
20191216020154 23 5 0.0 1.0 0.00 0.05 0.05 90 1020.8
20191216014808 23 5 0.0 2.0 0.00 0.05 0.05 90 1020.8
20191216013211 23 294 1.0 3.0 0.00 0.05 0.05 90 1020.7
20191216011706 23 309 0.0 3.0 0.00 0.05 0.05 89 1020.4
20191216010210 24 33 0.0 6.0 0.00 0.05 0.05 89 1020.2
20191216004714 24 319 0.0 3.0 0.00 0.05 0.05 89 1020.0
20191216003150 24 31 1.0 5.0 0.00 0.05 0.05 88 1019.6
20191216001732 25 34 1.0 5.0 0.00 0.05 0.05 88 1019.4
20191216000152 25 336 2.0 9.0 0.00 0.05 0.05 88 1019.2
20191215234746 25 12 1.0 10.0 0.00 0.05 0.05 87 1019.1
20191215233124 25 29 1.0 4.0 0.00 0.05 0.05 87 1019.1
20191215231706 25 317 4.0 10.0 0.01 0.05 0.05 87 1018.9
20191215230154 25 54 1.0 6.0 0.01 0.05 0.05 87 1018.8
20191215224728 25 308 5.0 10.0 0.01 0.05 0.05 86 1018.5
20191215223159 25 332 2.0 13.0 0.01 0.05 0.05 87 1018.5
20191215221633 26 125 1.0 10.0 0.00 0.04 0.04 87 1018.3
20191215220201 25 315 1.0 13.0 0.01 0.04 0.04 87 1018.2
20191215214652 25 302 6.0 15.0 0.02 0.04 0.04 86 1017.9
20191215213053 25 315 3.0 12.0 0.02 0.04 0.04 87 1017.7
20191215211604 25 311 6.0 18.0 0.03 0.04 0.04 86 1017.7
20191215210117 25 65 3.0 13.0 0.03 0.03 0.03 87 1017.5
20191215204602 25 332 3.0 14.0 0.02 0.02 0.02 86 1017.6
20191215203123 26 329 5.0 17.0 0.02 0.02 0.02 85 1017.6
20191215201608 26 314 3.0 10.0 0.01 0.01 0.01 84 1017.5
20191215200030 26 325 5.0 13.0 0.00 0.00 0.00 84 1017.4
20191215194546 26 31 3.0 11.0 0.00 0.00 0.00 85 1017.5
20191215193118 27 339 1.0 9.0 0.00 0.00 0.00 83 1017.5
20191215191548 25 58 2.0 9.0 0.00 0.00 0.00 84 1017.4
20191215190116 26 130 2.0 6.0 0.00 0.00 0.00 83 1017.4
20191215184546 25 74 1.0 6.0 0.00 0.00 0.00 85 1017.3
20191215183021 24 90 2.0 9.0 0.00 0.00 0.00 85 1017.4
20191215181518 24 304 2.0 8.0 0.00 0.00 0.00 86 1017.3
20191215180018 23 315 2.0 9.0 0.00 0.00 0.00 87 1017.2
20191215174512 23 40 3.0 8.0 0.00 0.00 0.00 86 1016.9
20191215173040 23 355 1.0 12.0 0.00 0.00 0.00 86 1016.6
20191215171505 22 46 3.0 9.0 0.00 0.00 0.00 87 1016.2
20191215170314 22 306 2.0 6.0 0.00 0.00 0.00 88 1015.7
20191215164817 21 26 1.0 6.0 0.00 0.00 0.00 89 1015.5
20191215163207 21 360 0.0 6.0 0.00 0.00 0.00 90 1015.3
20191215161702 21 80 0.0 10.0 0.00 0.00 0.00 90 1015.2
20191215160238 20 329 1.0 4.0 0.00 0.00 0.00 90 1015.0
20191215154825 20 80 2.0 10.0 0.00 0.00 0.00 91 1014.8
20191215153221 20 341 1.0 5.0 0.00 0.00 0.00 91 1014.5
20191215151750 20 113 0.0 7.0 0.00 0.00 0.00 91 1014.2
20191215150109 20 335 1.0 6.0 0.00 0.00 0.00 91 1013.9
20191215144625 20 32 0.0 8.0 0.00 0.00 0.00 91 1013.6
20191215143153 20 323 3.0 8.0 0.00 0.00 0.00 90 1013.6
20191215141615 21 18 2.0 8.0 0.00 0.00 0.00 91 1013.4
20191215140241 21 318 0.0 5.0 0.00 0.01 0.00 91 1013.1
20191215134631 21 57 1.0 8.0 0.00 0.01 0.00 91 1012.8
20191215133200 21 302 2.0 9.0 0.00 0.01 0.00 91 1012.6
20191215131556 21 355 3.0 11.0 0.00 0.01 0.00 91 1012.3
20191215130113 21 323 4.0 12.0 0.00 0.04 0.00 91 1011.9
20191215124601 21 302 2.0 9.0 0.00 0.04 0.00 90 1011.9
20191215123218 20 5 2.0 11.0 0.00 0.04 0.00 90 1011.7
20191215121545 21 52 3.0 17.0 0.00 0.04 0.00 90 1011.5
20191215120148 21 242 1.0 15.0 0.00 0.06 0.00 91 1011.4
20191215114643 21 310 6.0 17.0 0.00 0.06 0.00 91 1011.0
20191215113034 21 339 2.0 11.0 0.00 0.06 0.00 91 1011.1
20191215111602 21 348 1.0 7.0 0.00 0.06 0.00 91 1011.0
20191215110045 21 5 1.0 12.0 0.00 0.10 0.00 90 1010.5
20191215104548 22 310 5.0 15.0 0.00 0.10 0.00 90 1010.5
20191215103017 22 347 4.0 16.0 0.00 0.10 0.00 91 1010.3
20191215101531 23 308 4.0 16.0 0.00 0.10 0.00 91 1010.1
20191215100021 23 309 1.0 8.0 0.00 0.15 0.00 90 1010.0